When you browse on this site, cookies collect data to enhance your experience and personalize the content and advertising you see.
Visit our Privacy Policy to learn more. By continuing to use the site, you agree to this use of cookies and data.
  • In Österreich
  • Länderverzeichnis
  • Für 7 Tage
  • Wassertemperatur
  • Satellitenkarten
  • Wetterkarte
  • News
  • Widgets
  • user-avatar
    Anmelden

    Stündliche Wetter Scharch

    Heute, 14 Dezember, Freitag

    Zeit Temperatur Niederschläge Wind Luftdruck Luftfeuchtigkeit
    00:00 +23°C° 0 mm 4 m/S 764 mmHg 50%
    01:00 +24°C° 0 mm 3 m/S 764 mmHg 51%
    02:00 +24°C° 0 mm 3 m/S 764 mmHg 52%
    03:00 +22°C° 0 mm 3 m/S 764 mmHg 53%
    04:00 +22°C° 0 mm 3 m/S 764 mmHg 54%
    05:00 +22°C° 0 mm 3 m/S 764 mmHg 54%
    06:00 +22°C° 0 mm 3 m/S 765 mmHg 54%
    07:00 +22°C° 0 mm 3 m/S 765 mmHg 54%
    08:00 +25°C° 0 mm 3 m/S 765 mmHg 48%
    09:00 +26°C° 0 mm 3 m/S 765 mmHg 42%
    10:00 +28°C° 0 mm 3 m/S 765 mmHg 36%
    11:00 +29°C° 0 mm 3 m/S 765 mmHg 34%
    12:00 +29°C° 0 mm 4 m/S 764 mmHg 32%
    13:00 +30°C° 0 mm 4 m/S 764 mmHg 30%
    14:00 +30°C° 0 mm 4 m/S 763 mmHg 31%
    15:00 +29°C° 0 mm 5 m/S 763 mmHg 32%
    16:00 +29°C° 0 mm 5 m/S 763 mmHg 33%
    17:00 +28°C° 0 mm 5 m/S 763 mmHg 37%
    18:00 +27°C° 0 mm 5 m/S 764 mmHg 42%
    19:00 +26°C° 0 mm 5 m/S 764 mmHg 46%
    20:00 +25°C° 0 mm 5 m/S 764 mmHg 48%
    21:00 +25°C° 0 mm 5 m/S 764 mmHg 50%
    22:00 +23°C° 0 mm 5 m/S 765 mmHg 53%
    23:00 +23°C° 0 mm 5 m/S 764 mmHg 55%

    Morgen, 15 Dezember, Samstag

    Zeit Temperatur Niederschläge Wind Luftdruck Luftfeuchtigkeit
    00:00 +23°C° 0 mm 5 m/S 764 mmHg 58%
    01:00 +22°C° 0 mm 5 m/S 764 mmHg 61%
    02:00 +22°C° 0 mm 5 m/S 764 mmHg 61%
    03:00 +22°C° 0 mm 6 m/S 764 mmHg 62%
    04:00 +22°C° 0 mm 6 m/S 763 mmHg 63%
    05:00 +22°C° 0 mm 6 m/S 764 mmHg 63%
    06:00 +22°C° 0 mm 6 m/S 764 mmHg 63%
    07:00 +21°C° 0 mm 6 m/S 765 mmHg 62%
    08:00 +23°C° 0 mm 6 m/S 765 mmHg 56%
    09:00 +26°C° 0 mm 7 m/S 765 mmHg 49%
    10:00 +28°C° 0 mm 7 m/S 765 mmHg 42%
    11:00 +28°C° 0 mm 7 m/S 765 mmHg 39%
    12:00 +29°C° 0 mm 7 m/S 764 mmHg 37%
    13:00 +29°C° 0 mm 7 m/S 764 mmHg 34%
    14:00 +29°C° 0 mm 7 m/S 763 mmHg 35%
    15:00 +28°C° 0 mm 7 m/S 763 mmHg 36%
    16:00 +28°C° 0 mm 7 m/S 763 mmHg 37%
    17:00 +27°C° 0 mm 7 m/S 763 mmHg 42%
    18:00 +26°C° 0 mm 7 m/S 764 mmHg 46%
    19:00 +24°C° 0 mm 6 m/S 764 mmHg 50%
    20:00 +23°C° 0 mm 7 m/S 764 mmHg 52%
    21:00 +23°C° 0 mm 7 m/S 764 mmHg 53%
    22:00 +22°C° 0 mm 7 m/S 764 mmHg 55%
    23:00 +22°C° 0 mm 7 m/S 764 mmHg 56%

    übermorgen, 16 Dezember, Sonntag

    Zeit Temperatur Niederschläge Wind Luftdruck Luftfeuchtigkeit
    00:00 +22°C° 0 mm 7 m/S 764 mmHg 58%
    01:00 +22°C° 0 mm 7 m/S 764 mmHg 59%
    02:00 +22°C° 0 mm 7 m/S 764 mmHg 60%
    03:00 +21°C° 0 mm 7 m/S 764 mmHg 61%
    04:00 +21°C° 0 mm 7 m/S 764 mmHg 62%
    05:00 +21°C° 0 mm 7 m/S 764 mmHg 62%
    06:00 +21°C° 0 mm 7 m/S 764 mmHg 62%
    07:00 +21°C° 0 mm 8 m/S 765 mmHg 62%
    08:00 +22°C° 0 mm 8 m/S 765 mmHg 54%
    09:00 +24°C° 0 mm 9 m/S 765 mmHg 46%
    10:00 +27°C° 0 mm 9 m/S 766 mmHg 39%
    11:00 +28°C° 0 mm 9 m/S 765 mmHg 37%
    12:00 +28°C° 0 mm 9 m/S 764 mmHg 35%
    13:00 +29°C° 0 mm 9 m/S 764 mmHg 34%
    14:00 +28°C° 0 mm 9 m/S 763 mmHg 35%
    15:00 +28°C° 0 mm 10 m/S 763 mmHg 37%
    16:00 +28°C° 0 mm 10 m/S 763 mmHg 38%
    17:00 +27°C° 0 mm 9 m/S 763 mmHg 42%
    18:00 +26°C° 0 mm 9 m/S 764 mmHg 46%
    19:00 +24°C° 0 mm 8 m/S 764 mmHg 51%
    20:00 +23°C° 0 mm 8 m/S 765 mmHg 53%
    21:00 +23°C° 0 mm 8 m/S 765 mmHg 55%
    22:00 +23°C° 0 mm 8 m/S 765 mmHg 57%
    23:00 +22°C° 0 mm 8 m/S 765 mmHg 59%

    17 Dezember, Montag

    Zeit Temperatur Niederschläge Wind Luftdruck Luftfeuchtigkeit
    00:00 +22°C° 0 mm 8 m/S 764 mmHg 60%
    01:00 +22°C° 0 mm 8 m/S 764 mmHg 62%
    02:00 +21°C° 0 mm 7 m/S 764 mmHg 63%
    03:00 +21°C° 0 mm 7 m/S 764 mmHg 65%
    04:00 +21°C° 0 mm 7 m/S 764 mmHg 66%
    05:00 +21°C° 0 mm 7 m/S 764 mmHg 66%
    06:00 +20°C° 0 mm 7 m/S 764 mmHg 67%
    07:00 +20°C° 0 mm 7 m/S 765 mmHg 67%
    08:00 +22°C° 0 mm 8 m/S 765 mmHg 58%
    09:00 +24°C° 0 mm 8 m/S 765 mmHg 49%
    10:00 +27°C° 0 mm 9 m/S 766 mmHg 40%
    11:00 +28°C° 0 mm 9 m/S 765 mmHg 38%
    12:00 +28°C° 0 mm 9 m/S 764 mmHg 37%
    13:00 +29°C° 0 mm 9 m/S 763 mmHg 36%
    14:00 +28°C° 0 mm 9 m/S 763 mmHg 37%
    15:00 +28°C° 0 mm 9 m/S 763 mmHg 38%
    16:00 +28°C° 0 mm 9 m/S 762 mmHg 40%
    17:00 +26°C° 0 mm 9 m/S 763 mmHg 44%
    18:00 +24°C° 0 mm 8 m/S 763 mmHg 48%
    19:00 +23°C° 0 mm 8 m/S 764 mmHg 52%
    20:00 +23°C° 0 mm 7 m/S 764 mmHg 55%
    21:00 +22°C° 0 mm 7 m/S 765 mmHg 57%
    22:00 +22°C° 0 mm 7 m/S 765 mmHg 59%
    23:00 +22°C° 0 mm 7 m/S 765 mmHg 61%

    18 Dezember, Dienstag

    Zeit Temperatur Niederschläge Wind Luftdruck Luftfeuchtigkeit
    00:00 +21°C° 0 mm 6 m/S 764 mmHg 63%
    01:00 +21°C° 0 mm 6 m/S 764 mmHg 65%
    02:00 +21°C° 0 mm 6 m/S 764 mmHg 65%
    03:00 +20°C° 0 mm 6 m/S 764 mmHg 66%
    04:00 +20°C° 0 mm 5 m/S 764 mmHg 67%
    05:00 +20°C° 0 mm 5 m/S 764 mmHg 67%
    06:00 +20°C° 0 mm 6 m/S 764 mmHg 67%
    07:00 +19°C° 0 mm 6 m/S 765 mmHg 67%
    08:00 +22°C° 0 mm 6 m/S 765 mmHg 58%
    09:00 +24°C° 0 mm 6 m/S 765 mmHg 50%
    10:00 +27°C° 0 mm 7 m/S 765 mmHg 42%
    11:00 +28°C° 0 mm 6 m/S 764 mmHg 38%
    12:00 +28°C° 0 mm 6 m/S 764 mmHg 35%
    13:00 +29°C° 0 mm 6 m/S 763 mmHg 32%
    14:00 +29°C° 0 mm 6 m/S 763 mmHg 34%
    15:00 +28°C° 0 mm 6 m/S 762 mmHg 35%
    16:00 +28°C° 0 mm 6 m/S 762 mmHg 37%
    17:00 +27°C° 0 mm 5 m/S 762 mmHg 42%
    18:00 +25°C° 0 mm 5 m/S 763 mmHg 48%
    19:00 +23°C° 0 mm 5 m/S 763 mmHg 53%
    20:00 +23°C° 0 mm 4 m/S 763 mmHg 54%
    21:00 +22°C° 0 mm 4 m/S 764 mmHg 55%
    22:00 +22°C° 0 mm 4 m/S 764 mmHg 56%
    23:00 +21°C° 0 mm 3 m/S 763 mmHg 57%

    19 Dezember, Mittwoch

    Zeit Temperatur Niederschläge Wind Luftdruck Luftfeuchtigkeit
    00:00 +21°C° 0 mm 3 m/S 763 mmHg 58%
    01:00 +21°C° 0 mm 3 m/S 763 mmHg 59%
    02:00 +20°C° 0 mm 3 m/S 763 mmHg 60%
    03:00 +20°C° 0 mm 3 m/S 763 mmHg 61%
    04:00 +20°C° 0 mm 3 m/S 762 mmHg 62%
    05:00 +19°C° 0 mm 3 m/S 763 mmHg 62%
    06:00 +19°C° 0 mm 3 m/S 763 mmHg 62%
    07:00 +19°C° 0 mm 3 m/S 764 mmHg 62%
    08:00 +21°C° 0 mm 3 m/S 764 mmHg 54%
    09:00 +24°C° 0 mm 3 m/S 764 mmHg 47%
    10:00 +26°C° 0 mm 3 m/S 764 mmHg 39%
    11:00 +27°C° 0 mm 3 m/S 763 mmHg 35%
    12:00 +28°C° 0 mm 2 m/S 763 mmHg 32%
    13:00 +29°C° 0 mm 2 m/S 762 mmHg 28%
    14:00 +29°C° 0 mm 3 m/S 762 mmHg 28%
    15:00 +30°C° 0 mm 3 m/S 761 mmHg 27%
    16:00 +30°C° 0 mm 3 m/S 761 mmHg 27%
    17:00 +28°C° 0 mm 4 m/S 761 mmHg 34%
    18:00 +26°C° 0 mm 4 m/S 762 mmHg 41%
    19:00 +25°C° 0 mm 4 m/S 762 mmHg 49%
    20:00 +23°C° 0 mm 4 m/S 763 mmHg 52%
    21:00 +23°C° 0 mm 4 m/S 763 mmHg 55%
    22:00 +22°C° 0 mm 4 m/S 763 mmHg 57%
    23:00 +22°C° 0 mm 4 m/S 763 mmHg 59%
    Mehr zeigen